[[{"header":{"parameterUnit":"m.s-1","parameterCategory":1,"la1":30.2991,"la2":30.254,"lo1":-89.0895,"lo2":-89.0444,"dy":0.0017,"dx":0.0017,"nx":28,"ny":28,"refTime":"2024-04-06T03:00:00:Z","depth":0,"parameterNumber":2,"parameterNumberName":"U-component_of_WINDS"},"data":[0,0,0,0,0,0,0,0,0,0,0,0,0,0,0,0,0,0,0,0,0,0,0,0,0,0,0,0,0,0,0,0,0,0,0,0,0,0,0,0,0,0,0,0,0,0,0,0,0,0,0,0,0,0,0,0,0,0,-2.5054,-2.5054,0,-2.5125,-2.5125,-2.5126,-2.5157,-2.5157,-2.5157,-2.5157,-2.5229,-2.5231,-2.5233,0,0,0,0,0,0,0,0,0,0,0,0,0,-2.4944,-2.4946,-2.5053,-2.5054,-2.5055,-2.5124,-2.5125,-2.5126,-2.5157,-2.5157,-2.5157,-2.5157,-2.5228,-2.523,-2.5233,0,0,0,0,0,0,0,0,0,0,0,0,0,-2.5001,-2.4946,-2.5053,-2.5079,-2.5082,-2.5124,-2.5125,-2.5127,-2.5157,-2.5157,-2.5157,-2.5157,-2.5227,-2.523,-2.5233,-2.5255,0,0,-2.5242,-2.5244,0,0,0,0,0,0,0,0,-2.4997,-2.5005,-2.5074,-2.5077,-2.5081,-2.5132,-2.5113,-2.517,-2.5157,-2.5129,-2.5157,-2.5157,-2.5197,-2.5202,-2.5216,-2.5259,-2.5262,-2.5243,-2.5245,-2.5246,-2.5247,0,0,0,0,0,0,0,-2.4994,-2.5002,-2.5082,-2.5075,-2.5079,-2.5087,-2.5095,-2.5124,-2.5163,-2.5131,-2.5133,-2.5141,-2.5198,-2.5213,-2.5218,-2.5263,-2.5243,-2.5245,-2.5247,-2.5248,-2.5327,-2.5327,0,0,0,0,0,0,-2.4985,-2.4998,-2.5079,-2.5084,-2.5038,-2.5089,-2.5098,-2.5116,-2.5162,-2.5169,-2.5141,-2.5143,-2.5208,-2.5214,-2.522,-2.5249,-2.5246,-2.5249,-2.525,-2.5327,-2.5327,-2.5327,0,0,0,0,0,0,-2.4983,-2.4992,-2.5076,-2.5042,-2.5053,-2.5091,-2.5111,-2.5117,-2.5132,-2.517,-2.5177,-2.5149,-2.5208,-2.5216,-2.5246,-2.5252,-2.525,-2.5253,-2.5327,-2.5327,-2.5327,-2.5307,0,0,0,0,0,0,-2.498,-2.4991,-2.5,-2.5042,-2.5055,-2.5101,-2.5111,-2.5119,-2.5137,-2.5139,-2.5179,-2.5186,-2.5208,-2.5242,-2.5249,-2.5256,-2.5255,-2.5326,-2.5327,-2.5327,-2.5307,-2.5307,-2.5306,0,0,0,0,0,-2.4976,-2.4991,-2.5,-2.501,-2.5067,-2.5102,-2.5109,-2.5135,-2.5137,-2.5146,-2.5171,-2.5185,-2.525,-2.5245,-2.5253,-2.5261,-2.5326,-2.5327,-2.5327,-2.5307,-2.5307,-2.5306,0,0,0,0,0,0,-2.495,-2.4997,-2.5008,-2.5038,-2.5065,-2.5107,-2.5119,-2.5133,-2.5161,-2.5161,-2.5192,-2.5201,-2.5228,-2.5248,-2.5241,-2.5285,-2.5289,-2.5292,-2.5271,-2.5271,-2.527,-2.5265,-2.5258,0,0,0,0,0,-2.4947,-2.4972,-2.5012,-2.5035,-2.5048,-2.5081,-2.5097,-2.5115,-2.5144,-2.5156,-2.5183,-2.5212,-2.5239,-2.5256,-2.5283,-2.531,-2.5319,-2.532,-2.5319,-2.5319,-2.532,-2.5336,-2.5337,-2.5329,-2.5329,-2.5329,0,0,-2.4943,-2.4972,-2.4986,-2.503,-2.5054,-2.5078,-2.5091,-2.5116,-2.5135,-2.516,-2.519,-2.5211,-2.5245,-2.5274,-2.5288,-2.5291,-2.5325,-2.5319,-2.5319,-2.5321,-2.5337,-2.5338,-2.5338,-2.533,-2.533,-2.533,0,0,-2.4947,-2.4972,-2.4993,-2.5016,-2.5052,-2.5074,-2.5079,-2.5118,-2.5133,-2.5164,-2.5183,-2.5206,-2.5252,-2.5275,-2.5293,-2.5305,-2.5319,-2.5313,-2.531,-2.5325,-2.5326,-2.5327,-2.5331,-2.5332,-2.5315,-2.5315,-2.5315,0,-2.4937,-2.4975,-2.5002,-2.5027,-2.5045,-2.507,-2.5091,-2.5113,-2.5155,-2.5167,-2.517,-2.5229,-2.5253,-2.5287,-2.5291,-2.5304,-2.5311,-2.5309,-2.5324,-2.5325,-2.5326,-2.533,-2.5332,-2.5314,-2.5314,-2.5314,-2.5314,0,-2.4961,-2.4987,-2.5,-2.504,-2.506,-2.5083,-2.5114,-2.5131,-2.5146,-2.5168,-2.5199,-2.5229,-2.5263,-2.5272,-2.5287,-2.5309,-2.531,-2.5318,-2.5323,-2.5325,-2.533,-2.5332,-2.5313,-2.5313,-2.5313,-2.5314,0,0,-2.4951,-2.5006,-2.501,-2.5029,-2.5069,-2.509,-2.5114,-2.5147,-2.5161,-2.5189,-2.521,-2.5248,-2.5256,-2.5276,-2.5294,-2.5308,-2.5316,-2.5314,-2.5315,-2.5313,-2.5341,-2.5335,-2.5337,-2.5325,-2.5326,-2.5326,-2.5339,0,-2.4961,-2.5005,-2.503,-2.5063,-2.5087,-2.5111,-2.5132,-2.5159,-2.5179,-2.5203,-2.5226,-2.5252,-2.5261,-2.5273,-2.5287,-2.5312,-2.5322,-2.5311,-2.5345,-2.5345,-2.5335,-2.5339,-2.5333,-2.5343,-2.5341,-2.5341,-2.5341,0,-2.4978,-2.5006,-2.5042,-2.508,-2.5091,-2.5109,-2.5141,-2.5164,-2.5195,-2.5209,-2.5231,-2.5249,-2.5276,-2.5278,-2.5315,-2.5307,-2.5322,-2.5336,-2.5337,-2.5341,-2.5343,-2.5343,-2.5347,-2.5349,-2.5345,-2.5344,-2.5344,0,-2.4967,-2.5014,-2.5041,-2.5056,-2.5101,-2.5113,-2.5133,-2.5164,-2.5182,-2.521,-2.5222,-2.5253,-2.527,-2.5293,-2.5319,-2.5318,-2.5352,-2.5357,-2.5365,-2.5364,-2.5371,-2.537,-2.5377,-2.5381,-2.538,-2.538,-2.538,0,-2.4975,-2.4996,-2.5037,-2.5054,-2.5078,-2.5106,-2.5129,-2.5151,-2.5178,-2.5199,-2.5221,-2.5241,-2.5274,-2.5298,-2.5318,-2.5345,-2.5352,-2.5365,-2.537,-2.5363,-2.5361,-2.5373,-2.5373,-2.5381,-2.5381,-2.5381,-2.5381,0,-2.4967,-2.4995,-2.5027,-2.5066,-2.5077,-2.5093,-2.5127,-2.5144,-2.5166,-2.5193,-2.5201,-2.5235,-2.5264,-2.5292,-2.5331,-2.5345,-2.5372,-2.5379,-2.5361,-2.5364,-2.537,-2.5369,-2.5385,-2.5388,-2.5389,-2.5389,-2.5389,0,-2.4971,-2.4987,-2.5029,-2.5045,-2.5064,-2.5089,-2.5108,-2.5136,-2.5155,-2.5191,-2.5204,-2.5235,-2.5261,-2.5306,-2.5335,-2.5364,-2.5372,-2.5376,-2.5377,-2.5369,-2.5372,-2.5371,-2.5373,-2.5375,-2.5375,-2.5375,-2.5374,0,-2.4974,-2.4987,-2.5013,-2.5043,-2.5065,-2.5091,-2.5117,-2.5129,-2.5162,-2.5182,-2.5212,-2.5232,-2.5272,-2.5302,-2.5335,-2.5355,-2.537,-2.5374,-2.5377,-2.537,-2.5359,-2.5365,-2.5359,-2.5373,-2.5374,-2.5374,-2.5374,-2.5374,-2.4972,-2.4988,-2.5019,-2.5047,-2.507,-2.5094,-2.5112,-2.5136,-2.5162,-2.5196,-2.5212,-2.5242,-2.5273,-2.5319,-2.5339,-2.5363,-2.5367,-2.5371,-2.5373,-2.5373,-2.5372,-2.5355,-2.5369,-2.5369,-2.5369,-2.5369,-2.5369,0,-2.4976,-2.4997,-2.5023,-2.5059,-2.5081,-2.5094,-2.5123,-2.5141,-2.5167,-2.5195,-2.522,-2.5254,-2.5284,-2.5314,-2.5346,-2.5359,-2.5367,-2.5366,-2.5365,-2.537,-2.5367,-2.5361,-2.5359,-2.5359,-2.5359,-2.5359,-2.5359,-2.5359,-2.4981,-2.5008,-2.5025,-2.5064,-2.5085,-2.5115,-2.5131,-2.5153,-2.5175,-2.5212,-2.5237,-2.5257,-2.5286,-2.5319,-2.5347,-2.5355,-2.5365,-2.5363,-2.5373,-2.5369,-2.537,-2.5371,-2.5365,-2.5365,-2.5365,-2.5374,-2.5374,-2.5374]},{"header":{"parameterUnit":"m.s-1","parameterCategory":1,"la1":30.2991,"la2":30.254,"lo1":-89.0895,"lo2":-89.0444,"dy":0.0017,"dx":0.0017,"nx":28,"ny":28,"refTime":"2024-04-06T03:00:00:Z","depth":0,"parameterNumber":3,"parameterNumberName":"V-component_of_WINDS"},"data":[0,0,0,0,0,0,0,0,0,0,0,0,0,0,0,0,0,0,0,0,0,0,0,0,0,0,0,0,0,0,0,0,0,0,0,0,0,0,0,0,0,0,0,0,0,0,0,0,0,0,0,0,0,0,0,0,0,0,4.536,4.536,0,4.5388,4.5388,4.5388,4.5371,4.537,4.5369,4.5368,4.5395,4.5397,4.5398,0,0,0,0,0,0,0,0,0,0,0,0,0,4.5289,4.529,4.536,4.536,4.536,4.5388,4.5388,4.5389,4.5371,4.537,4.5369,4.5368,4.5395,4.5396,4.5398,0,0,0,0,0,0,0,0,0,0,0,0,0,4.5318,4.529,4.536,4.5355,4.5355,4.5388,4.5388,4.5389,4.5371,4.537,4.5369,4.5368,4.5394,4.5396,4.5398,4.5437,0,0,4.5405,4.5406,0,0,0,0,0,0,0,0,4.5317,4.5321,4.5355,4.5355,4.5355,4.5375,4.5373,4.5405,4.5371,4.5365,4.5368,4.5367,4.5389,4.5392,4.54,4.5438,4.5439,4.5405,4.5407,4.5408,4.5408,0,0,0,0,0,0,0,4.5315,4.532,4.5371,4.5356,4.5356,4.5351,4.5354,4.5379,4.5383,4.5365,4.5364,4.5368,4.5389,4.5398,4.54,4.544,4.5405,4.5407,4.5409,4.541,4.5511,4.5513,0,0,0,0,0,0,4.5313,4.5318,4.537,4.5372,4.5333,4.5353,4.5356,4.537,4.5383,4.5384,4.5369,4.5367,4.5394,4.5398,4.5401,4.5447,4.5408,4.541,4.5411,4.551,4.5512,4.5513,0,0,0,0,0,0,4.5312,4.5318,4.5369,4.5345,4.5351,4.5356,4.5371,4.5371,4.5379,4.5386,4.5386,4.5377,4.5393,4.5398,4.5428,4.5448,4.5411,4.5413,4.5508,4.551,4.5512,4.554,0,0,0,0,0,0,4.531,4.5318,4.5333,4.5345,4.5352,4.5396,4.5372,4.5372,4.5384,4.5381,4.5394,4.5395,4.5393,4.5425,4.543,4.545,4.5414,4.5507,4.5509,4.5512,4.5537,4.5543,4.5547,0,0,0,0,0,4.5307,4.5339,4.5334,4.534,4.5371,4.5397,4.5401,4.5399,4.5385,4.54,4.5404,4.5394,4.5445,4.5428,4.5434,4.5455,4.5505,4.5508,4.5511,4.5535,4.5542,4.5547,0,0,0,0,0,0,4.5328,4.534,4.5335,4.5371,4.5383,4.5394,4.5413,4.5406,4.5422,4.5419,4.5416,4.5418,4.545,4.5456,4.5437,4.5493,4.5473,4.5477,4.5489,4.5495,4.55,4.5498,4.5416,0,0,0,0,0,4.5337,4.5358,4.5367,4.5398,4.5405,4.5408,4.5419,4.5417,4.5429,4.5434,4.544,4.5452,4.5471,4.5483,4.55,4.5538,4.554,4.5555,4.556,4.5564,4.5568,4.5588,4.5595,4.5523,4.5523,4.5523,0,0,4.5355,4.5364,4.5378,4.5403,4.5412,4.5433,4.5412,4.5436,4.5451,4.5437,4.5467,4.5472,4.5485,4.5519,4.5534,4.5524,4.5588,4.5568,4.5571,4.5573,4.5592,4.5599,4.5605,4.5525,4.5525,4.5525,0,0,4.5399,4.5409,4.5436,4.5446,4.546,4.5462,4.5469,4.5481,4.5484,4.5514,4.5504,4.5522,4.5554,4.5564,4.5573,4.5621,4.5613,4.5627,4.5653,4.5673,4.5679,4.5684,4.5702,4.5708,4.5631,4.5631,4.5631,0,4.542,4.5453,4.5451,4.5475,4.5486,4.5475,4.5503,4.5512,4.5531,4.5539,4.5528,4.5568,4.5576,4.5613,4.5625,4.5632,4.5639,4.5626,4.5678,4.5683,4.5688,4.5705,4.5711,4.5633,4.5632,4.5632,4.5632,0,4.5478,4.55,4.552,4.554,4.5554,4.5579,4.5581,4.5595,4.5591,4.5594,4.5624,4.5633,4.5653,4.5661,4.5657,4.5697,4.5691,4.5679,4.5658,4.5697,4.5712,4.5719,4.5635,4.5634,4.5634,4.5634,0,0,4.5536,4.5555,4.5562,4.5571,4.5587,4.5604,4.5629,4.5648,4.566,4.5674,4.5695,4.5722,4.5712,4.5722,4.5719,4.5737,4.5775,4.5723,4.5723,4.5733,4.582,4.5829,4.5837,4.577,4.5771,4.5772,4.5819,0,4.5582,4.5627,4.5626,4.5667,4.5688,4.5678,4.5699,4.5711,4.5714,4.5732,4.5735,4.5755,4.574,4.5746,4.5763,4.5767,4.5793,4.5764,4.5789,4.579,4.5786,4.5845,4.5855,4.5899,4.5825,4.5826,4.5827,0,4.5641,4.5658,4.5702,4.5714,4.5723,4.5743,4.5761,4.5778,4.5791,4.5792,4.5804,4.5798,4.5823,4.5802,4.5837,4.5817,4.5827,4.583,4.5832,4.5835,4.5811,4.5849,4.5913,4.592,4.5837,4.5836,4.5835,0,4.568,4.5713,4.5744,4.5752,4.5767,4.5781,4.5788,4.58,4.5812,4.5827,4.5835,4.5853,4.5863,4.5876,4.5876,4.586,4.5911,4.5889,4.5912,4.5913,4.5924,4.5923,4.599,4.593,4.593,4.5929,4.5929,0,4.5732,4.5759,4.5762,4.5781,4.5811,4.5809,4.5838,4.5844,4.5854,4.5874,4.5865,4.5884,4.5881,4.59,4.5899,4.5928,4.5932,4.5934,4.5934,4.5935,4.5935,4.5942,4.5939,4.5931,4.5931,4.593,4.593,0,4.5781,4.5783,4.5816,4.5828,4.5832,4.5854,4.5863,4.5881,4.5884,4.5908,4.5914,4.5918,4.5939,4.594,4.5964,4.5964,4.5999,4.5995,4.5995,4.5994,4.6018,4.6016,4.6092,4.6102,4.6034,4.6035,4.6035,0,4.5814,4.5835,4.5849,4.5862,4.587,4.589,4.5903,4.5902,4.5915,4.5931,4.5947,4.5967,4.5983,4.6017,4.6022,4.604,4.6037,4.6062,4.604,4.6041,4.6038,4.6037,4.6039,4.6067,4.6068,4.6068,4.6069,0,4.5873,4.5873,4.5892,4.5911,4.5926,4.5941,4.5955,4.5965,4.5965,4.5981,4.6002,4.6015,4.604,4.606,4.6078,4.6084,4.6077,4.6076,4.6082,4.6084,4.6084,4.6085,4.6008,4.6074,4.6074,4.6073,4.6073,4.6073,4.5915,4.5934,4.5947,4.5968,4.5978,4.5991,4.6008,4.6013,4.6032,4.6052,4.605,4.6075,4.6086,4.611,4.6118,4.6136,4.6127,4.6137,4.6139,4.6141,4.6144,4.6081,4.6139,4.6139,4.6139,4.6139,4.6139,0,4.5974,4.5982,4.6001,4.6021,4.6038,4.6029,4.6044,4.6058,4.608,4.6092,4.6109,4.6134,4.6153,4.616,4.6179,4.6192,4.6189,4.6198,4.6197,4.6199,4.6151,4.6144,4.62,4.62,4.62,4.62,4.62,4.62,4.6007,4.6038,4.6039,4.6075,4.6082,4.6107,4.6116,4.6128,4.6137,4.6166,4.6183,4.6187,4.6197,4.6216,4.6234,4.6235,4.6243,4.6253,4.6252,4.6208,4.6202,4.6196,4.6189,4.6254,4.6254,4.6299,4.6299,4.6299]}]]